Find Starlink 3658

NORAD ID: 52107 Int'l Des: 2022-029 Owner: SPXS Country: US Constellation: starlink operational
LEOCIRCULAR

Live-Position

3D-Globus wird geladen...

Über Starlink 3658

Beschreibung wird geladen...

Nächste Überflüge

Passes for default location (London). Set your location on the main map for personalized predictions.

Höhenverlauf

Loading altitude history...

Zweizeiliger Elementsatz

1 52107U 22029V 26122.47954720 -.00000201 00000-0 54422-5 0 9997
2 52107 53.2161 197.6496 0001371 92.3761 267.7388 15.08847380228903
Epoch: 2. Mai 2026 • Age: 12 hours

Aktueller Status

Höhe 540.0 km
Geschwindigkeit 7.60 km/s
Subsatellitenpunkt 23.00°N, 146.62°E
Startdatum 19. März 2022
Alter 4.1 years
Typ internet

Technische Details

Klassifizierung Payload
Masse 297.00 kg
Trockenmasse 275.00 kg
Gesamtmasse 297.00 kg
Länge 0.20 m
Durchmesser 2.80 m
Spannweite 9.00 m
Form Box + pan
Hersteller SPXS
Bus-Typ Starlink
Phasenstatus In Orbit
Besitzer/Staat SPXS/US

Most Searched